TimeEST,TemperatureF,Dew PointF,Humidity,Sea Level PressureIn,VisibilityMPH,Wind Direction,Wind SpeedMPH,Gust SpeedMPH,PrecipitationIn,Events,Conditions,WindDirDegrees,DateUTC
12:15 AM,56.3,56.3,100,30.18,1.2,Calm,Calm,-,N/A,,Overcast,0,2013-11-23 05:15:00
12:35 AM,56.1,56.1,100,30.18,0.8,Calm,Calm,-,N/A,,Overcast,0,2013-11-23 05:35:00
12:55 AM,56.1,56.1,100,30.18,10.0,Calm,Calm,-,N/A,,Overcast,0,2013-11-23 05:55:00
1:15 AM,56.3,56.3,100,30.18,7.0,Calm,Calm,-,N/A,,Overcast,0,2013-11-23 06:15:00
1:35 AM,55.2,55.2,100,30.18,10.0,East,4.6,-,N/A,,Overcast,90,2013-11-23 06:35:00
1:55 AM,54.5,54.1,99,30.18,10.0,East,4.6,-,N/A,,Overcast,90,2013-11-23 06:55:00
2:15 AM,54.3,53.1,95,30.18,10.0,ENE,3.5,-,N/A,,Overcast,60,2013-11-23 07:15:00
2:35 AM,52.5,50.5,93,30.18,10.0,ESE,3.5,-,N/A,,Scattered Clouds,120,2013-11-23 07:35:00
2:55 AM,52.0,51.3,97,30.18,10.0,North,3.5,-,N/A,,Mostly Cloudy,350,2013-11-23 07:55:00
3:15 AM,50.7,49.5,95,30.17,10.0,Calm,Calm,-,N/A,,Scattered Clouds,0,2013-11-23 08:15:00
3:35 AM,50.0,49.8,99,30.16,10.0,Calm,Calm,-,N/A,,Clear,0,2013-11-23 08:35:00
3:55 AM,49.3,49.3,100,30.16,1.2,Calm,Calm,-,N/A,,Scattered Clouds,0,2013-11-23 08:55:00
4:15 AM,47.1,46.9,99,30.16,1.0,WSW,3.5,-,N/A,,Mostly Cloudy,240,2013-11-23 09:15:00
4:35 AM,47.3,46.9,99,30.16,10.0,Calm,Calm,-,N/A,,Mostly Cloudy,0,2013-11-23 09:35:00
4:55 AM,48.2,48.2,100,30.16,5.0,Calm,Calm,-,N/A,,Overcast,0,2013-11-23 09:55:00
5:15 AM,48.7,48.7,100,30.16,4.0,Calm,Calm,-,N/A,,Overcast,0,2013-11-23 10:15:00
5:35 AM,49.5,49.5,100,30.16,2.5,Calm,Calm,-,N/A,,Overcast,0,2013-11-23 10:35:00
5:55 AM,49.5,49.3,99,30.16,2.5,Calm,Calm,-,N/A,,Overcast,0,2013-11-23 10:55:00
6:15 AM,50.0,49.5,98,30.16,2.0,Calm,Calm,-,N/A,,Overcast,0,2013-11-23 11:15:00
6:35 AM,50.0,49.8,99,30.17,10.0,Calm,Calm,-,N/A,,Overcast,0,2013-11-23 11:35:00
6:55 AM,50.0,50.0,100,30.18,10.0,Calm,Calm,-,N/A,,Overcast,0,2013-11-23 11:55:00
7:15 AM,50.4,50.2,99,30.19,7.0,Calm,Calm,-,N/A,,Overcast,0,2013-11-23 12:15:00
7:35 AM,50.7,49.5,95,30.19,5.0,Calm,Calm,-,N/A,,Overcast,0,2013-11-23 12:35:00
7:55 AM,50.2,46.9,89,30.19,10.0,East,4.6,-,N/A,,Overcast,100,2013-11-23 12:55:00
8:15 AM,49.5,46.0,88,30.20,10.0,East,3.5,-,N/A,,Overcast,100,2013-11-23 13:15:00
8:35 AM,50.0,45.9,86,30.22,7.0,North,3.5,-,N/A,,Overcast,360,2013-11-23 13:35:00
8:55 AM,49.5,45.3,86,30.22,2.5,East,3.5,-,N/A,,Haze,90,2013-11-23 13:55:00
9:15 AM,49.1,44.2,83,30.21,5.0,Calm,Calm,-,N/A,,Haze,0,2013-11-23 14:15:00
9:35 AM,49.5,44.6,83,30.23,10.0,NW,4.6,-,N/A,,Mostly Cloudy,320,2013-11-23 14:35:00
9:55 AM,50.0,43.7,79,30.24,10.0,NNE,5.8,-,N/A,,Scattered Clouds,20,2013-11-23 14:55:00
10:15 AM,50.0,43.0,77,30.24,10.0,Calm,Calm,-,N/A,,Clear,0,2013-11-23 15:15:00
10:35 AM,50.5,42.8,75,30.24,10.0,Calm,Calm,-,N/A,,Scattered Clouds,0,2013-11-23 15:35:00
10:55 AM,50.2,42.1,74,30.24,10.0,East,4.6,-,N/A,,Mostly Cloudy,80,2013-11-23 15:55:00
11:15 AM,50.4,42.4,74,30.25,10.0,North,8.1,17.3,N/A,,Overcast,10,2013-11-23 16:15:00
11:35 AM,50.0,43.5,78,30.24,10.0,East,9.2,-,N/A,,Overcast,90,2013-11-23 16:35:00
11:55 AM,48.6,43.2,82,30.22,10.0,East,10.4,-,N/A,,Overcast,90,2013-11-23 16:55:00
12:15 PM,49.1,42.8,79,30.20,10.0,East,8.1,-,N/A,,Overcast,80,2013-11-23 17:15:00
12:35 PM,50.4,43.2,76,30.21,10.0,NNE,5.8,-,N/A,,Overcast,30,2013-11-23 17:35:00
12:55 PM,50.9,41.7,71,30.20,10.0,ESE,6.9,-,N/A,,Overcast,110,2013-11-23 17:55:00
1:15 PM,50.0,41.9,74,30.20,10.0,NE,8.1,-,N/A,,Scattered Clouds,40,2013-11-23 18:15:00
1:35 PM,48.4,39.9,73,30.20,10.0,NE,10.4,-,N/A,,Scattered Clouds,40,2013-11-23 18:35:00
1:55 PM,48.0,39.0,71,30.20,10.0,NNE,6.9,-,N/A,,Mostly Cloudy,30,2013-11-23 18:55:00
2:15 PM,47.1,39.2,74,30.20,10.0,NE,9.2,-,N/A,,Overcast,40,2013-11-23 19:15:00
2:35 PM,46.8,38.5,73,30.20,10.0,NE,8.1,-,N/A,,Scattered Clouds,50,2013-11-23 19:35:00
2:55 PM,46.4,36.3,68,30.20,10.0,NE,8.1,-,N/A,,Clear,50,2013-11-23 19:55:00
3:15 PM,46.4,36.1,67,30.21,10.0,ENE,10.4,-,N/A,,Clear,70,2013-11-23 20:15:00
3:35 PM,46.0,35.1,66,30.21,10.0,East,11.5,-,N/A,,Clear,80,2013-11-23 20:35:00
3:55 PM,46.0,31.6,57,30.21,10.0,ENE,6.9,-,N/A,,Clear,70,2013-11-23 20:55:00
4:15 PM,45.5,30.6,56,30.22,10.0,ENE,8.1,-,N/A,,Clear,60,2013-11-23 21:15:00
4:35 PM,43.7,30.7,60,30.23,10.0,ENE,10.4,-,N/A,,Clear,70,2013-11-23 21:35:00
4:55 PM,41.9,30.6,64,30.25,10.0,East,10.4,-,N/A,,Clear,80,2013-11-23 21:55:00
5:15 PM,41.9,31.1,66,30.25,10.0,East,10.4,-,N/A,,Clear,90,2013-11-23 22:15:00
5:35 PM,41.2,30.9,67,30.25,10.0,ENE,5.8,-,N/A,,Clear,60,2013-11-23 22:35:00
5:55 PM,40.1,30.6,69,30.25,10.0,East,9.2,-,N/A,,Clear,90,2013-11-23 22:55:00
6:15 PM,40.8,29.3,64,30.27,10.0,ENE,6.9,-,N/A,,Clear,70,2013-11-23 23:15:00
6:35 PM,40.6,30.2,66,30.26,10.0,East,9.2,-,N/A,,Clear,90,2013-11-23 23:35:00
6:55 PM,40.1,30.4,68,30.26,10.0,East,10.4,-,N/A,,Clear,100,2013-11-23 23:55:00
7:15 PM,40.1,29.7,66,30.26,10.0,East,9.2,-,N/A,,Clear,90,2013-11-24 00:15:00
7:35 PM,40.5,27.7,60,30.26,10.0,East,10.4,17.3,N/A,,Clear,80,2013-11-24 00:35:00
7:55 PM,39.4,27.7,63,30.26,10.0,ENE,5.8,-,N/A,,Clear,70,2013-11-24 00:55:00
8:15 PM,39.7,26.4,59,30.26,10.0,North,4.6,-,N/A,,Clear,10,2013-11-24 01:15:00
8:35 PM,39.6,26.6,60,30.27,10.0,Calm,Calm,-,N/A,,Clear,0,2013-11-24 01:35:00
8:55 PM,39.4,26.6,60,30.27,10.0,NE,5.8,-,N/A,,Clear,40,2013-11-24 01:55:00
9:15 PM,39.0,27.0,62,30.27,10.0,North,5.8,10.4,N/A,,Scattered Clouds,10,2013-11-24 02:15:00
9:35 PM,37.9,25.7,61,30.28,10.0,North,16.1,19.6,N/A,,Scattered Clouds,10,2013-11-24 02:35:00
9:55 PM,36.9,23.7,59,30.29,10.0,NE,11.5,18.4,N/A,,Scattered Clouds,40,2013-11-24 02:55:00
10:15 PM,36.3,22.5,57,30.28,10.0,ENE,4.6,-,N/A,,Clear,60,2013-11-24 03:15:00
10:35 PM,35.8,21.6,56,30.28,10.0,North,8.1,-,N/A,,Clear,10,2013-11-24 03:35:00
10:55 PM,35.6,21.7,57,30.29,10.0,NNE,8.1,-,N/A,,Clear,30,2013-11-24 03:55:00
11:15 PM,34.7,20.8,57,30.29,10.0,NNE,3.5,-,N/A,,Clear,30,2013-11-24 04:15:00
11:35 PM,34.3,19.2,54,30.29,10.0,Calm,Calm,-,N/A,,Clear,0,2013-11-24 04:35:00
11:55 PM,33.1,20.3,59,30.29,10.0,ENE,8.1,-,N/A,,Clear,60,2013-11-24 04:55:00